User: anonymous   Login
Location: Zagreb
(45.8000°N, 16.0000°E)
Time: 19:07:45
(UTC+02:00)
Language:

Vanguard 2 - Orbit

View from above orbital plane
View from above orbital plane
View from above satellite
View from above satellite

Ground track
Ground track

The orbit data is extracted from the following two-line orbital elements,

1    11U 59001A   20221.88951074 -.00000038 +00000-0 -35173-4 0  9992
2    11 032.8675 218.5074 1468255 187.5050 170.1049 11.85686215281207
Epoch (UTC): 08 August 2020 21:20:53
Eccentricity: 0.1468255
inclination: 32.8675°
perigee height: 553 km
apogee height: 2938 km
right ascension of ascending node: 218.5074°
argument of perigee: 187.5050°
revolutions per day: 11.85686215
mean anomaly at epoch: 170.1049°
orbit number at epoch: 28120

The dashed part of the orbit path shows where the satellite is in the earth's shadow,  

DLR